Regional Weather Roundup
Issued by NWS

Home | Current Version | Previous Version | Text Only | Print | Product List | Glossary Off
Versions: 1 2 3 4 5 6 7 8 9 10 11 12 13 14 15 16 17 18 19 20 21 22 23 24 25 26 27 28 29 30 31 32 33 34 35 36 37 38 39 40 41 42 43 44 45 46 47 48 49 50

000
ASUS43 KBIS 241910
RWRND

NORTH DAKOTA REGIONAL WEATHER ROUNDUP
NATIONAL WEATHER SERVICE BISMARCK ND
200 PM CDT SUN JUL 24 2016

NOTE: "FAIR" INDICATES FEW OR NO CLOUDS BELOW 12,000 FEET WITH NO
SIGNIFICANT WEATHER AND/OR OBSTRUCTIONS TO VISIBILITY.


NDZ001>003-009>011-017-242000-
NORTHWEST NORTH DAKOTA

CITY           SKY/WX    TMP DP  RH WIND       PRES   REMARKS
WILLISTON      SUNNY     83  49  30 NW13      30.04F
MINOT          MOSUNNY   82  55  39 W22G29    29.99F
MINOT AFB      SUNNY     78  54  44 NW22      29.98F
$$

NDZ018>021-031>035-040>046-242000-
SOUTHWEST NORTH DAKOTA

CITY           SKY/WX    TMP DP  RH WIND       PRES   REMARKS
BISMARCK       SUNNY     82  55  39 NW15G25   30.04S
DICKINSON      SUNNY     79  49  34 W7        30.07F
GARRISON         N/A     78  56  46 NW16G24   30.03F
HETTINGER ARPT SUNNY     86  43  22 N12       30.10F
$$

NDZ004>008-012>016-024-026-027-054-242000-
NORTHEAST NORTH DAKOTA

CITY           SKY/WX    TMP DP  RH WIND       PRES   REMARKS
GRAND FORKS    PTSUNNY   78  62  57 NW20G26   29.87F
GRND FRKS AFB  MOSUNNY   79  61  54 NW16G23   29.89S
DEVILS LAKE    SUNNY     75  57  53 W21G29    29.95R
$$

NDZ022-023-025-028>030-036>039-047>053-242000-
SOUTHEAST NORTH DAKOTA

CITY           SKY/WX    TMP DP  RH WIND       PRES   REMARKS
FARGO          SUNNY     81  60  48 NW16G26   29.90F
JAMESTOWN      SUNNY     78  56  46 NW22      29.97F
$$




USA.gov is the U.S. government's official web portal to all federal, state and local government web resources and services.